CW4647 Weather Reports


time (UTC)temp
C
wind
direction
speed
KPH
gust
KPH
rain 1hr
cm
rain 24hr
cm
rain mn
cm
humidity
%
barometer
mb
20260502210558 27 82 17.7 32.2 0.00 0.00 0.00 71 1010.3
20260502210056 27 92 17.7 25.7 0.00 0.00 0.00 72 1010.3
20260502205557 27 88 14.5 25.7 0.00 0.00 0.00 72 1010.2
20260502205055 27 78 12.9 22.5 0.00 0.00 0.00 73 1010.2
20260502204604 27 84 12.9 24.1 0.00 0.00 0.00 74 1010.2
20260502204055 27 73 9.7 25.7 0.00 0.00 0.00 75 1010.1
20260502203555 26 67 9.7 25.7 0.00 0.00 0.00 75 1010.1
20260502203119 26 65 12.9 25.7 0.00 0.00 0.00 76 1010.0
20260502202555 26 58 9.7 20.9 0.00 0.00 0.00 76 1009.9
20260502202101 26 69 11.3 22.5 0.00 0.00 0.00 76 1010.1
20260502201611 26 50 9.7 22.5 0.00 0.00 0.00 76 1010.1
20260502201058 26 98 12.9 20.9 0.00 0.00 0.00 76 1010.0
20260502200558 26 60 11.3 20.9 0.00 0.00 0.00 76 1009.9
20260502200109 26 92 11.3 25.7 0.00 0.00 0.00 76 1009.9
20260502195601 26 61 14.5 25.7 0.00 0.00 0.00 76 1009.9
20260502195058 26 85 11.3 22.5 0.00 0.00 0.00 76 1010.0
20260502194600 26 71 12.9 20.9 0.00 0.00 0.00 76 1010.1
20260502194055 26 25 9.7 17.7 0.00 0.00 0.00 76 1010.1
20260502193556 26 76 8.0 19.3 0.00 0.00 0.00 76 1010.1
20260502193119 26 63 9.7 19.3 0.00 0.00 0.00 75 1010.0
20260502192600 26 65 9.7 19.3 0.00 0.00 0.00 75 1010.0
20260502192056 26 60 11.3 24.1 0.00 0.00 0.00 75 1010.0
20260502191557 26 52 11.3 25.7 0.00 0.00 0.00 75 1010.0
20260502191055 26 70 12.9 25.7 0.00 0.00 0.00 76 1009.9
20260502190557 26 74 12.9 25.7 0.00 0.00 0.00 76 1009.9
20260502190056 26 69 11.3 20.9 0.00 0.00 0.00 76 1009.8
20260502185555 26 63 12.9 20.9 0.00 0.00 0.00 76 1009.9
20260502185057 26 70 14.5 20.9 0.00 0.00 0.00 76 1009.7
20260502184603 26 69 11.3 20.9 0.00 0.00 0.00 76 1009.7
20260502184057 26 59 9.7 20.9 0.00 0.00 0.00 76 1009.7
20260502183555 26 67 12.9 20.9 0.00 0.00 0.00 76 1009.7
20260502183101 26 96 11.3 19.3 0.00 0.00 0.00 76 1009.8
20260502182559 26 61 6.4 16.1 0.00 0.00 0.00 76 1009.8
20260502182055 26 71 8.0 19.3 0.00 0.00 0.00 76 1009.8
20260502181558 26 40 9.7 19.3 0.00 0.00 0.00 75 1009.7
20260502181055 26 59 9.7 19.3 0.00 0.00 0.00 75 1009.8
20260502180555 26 73 8.0 19.3 0.00 0.00 0.00 75 1009.8
20260502164055 26 59 12.9 22.5 0.00 0.00 0.00 76 1009.9
20260502163556 26 59 12.9 22.5 0.00 0.00 0.00 76 1009.9
20260502163100 26 73 11.3 20.9 0.00 0.00 0.00 76 1009.9
20260502162600 26 69 12.9 20.9 0.00 0.00 0.00 76 1009.9
20260502162057 26 55 12.9 22.5 0.00 0.00 0.00 76 1009.9
20260502161558 26 63 12.9 22.5 0.00 0.00 0.00 76 1010.1
20260502161054 26 66 11.3 20.9 0.00 0.00 0.00 77 1010.1
20260502160557 26 69 8.0 17.7 0.00 0.00 0.00 77 1010.2
20260502152058 26 81 8.0 17.7 0.00 0.00 0.00 78 1010.7
20260502151614 26 49 9.7 19.3 0.00 0.00 0.00 78 1010.8
20260502151058 26 63 9.7 20.9 0.00 0.00 0.00 78 1010.8
20260502150555 26 78 14.5 20.9 0.00 0.00 0.00 77 1010.9
20260502140103 27 53 11.3 20.9 0.00 0.00 0.00 77 1011.6
20260502130602 27 49 11.3 20.9 0.00 0.00 0.00 76 1012.1
20260502123555 27 81 14.5 24.1 0.00 0.00 0.00 76 1012.0
20260502123057 27 73 9.7 25.7 0.00 0.00 0.00 76 1012.0
20260502122604 27 71 12.9 27.4 0.00 0.00 0.00 76 1012.0
20260502122057 27 51 16.1 27.4 0.00 0.00 0.00 75 1011.9
20260502121558 27 57 9.7 20.9 0.00 0.00 0.00 76 1012.0
20260502121103 27 51 12.9 22.5 0.00 0.00 0.00 76 1011.9
20260502120557 27 63 11.3 25.7 0.00 0.00 0.00 76 1011.9
20260502115558 27 46 12.9 25.7 0.00 0.00 0.00 76 1011.9
20260502115056 27 57 16.1 25.7 0.00 0.00 0.00 76 1011.8
20260502114556 27 66 12.9 24.1 0.00 0.00 0.00 76 1011.9
20260502114056 27 73 12.9 22.5 0.00 0.00 0.00 75 1011.9
20260502113556 27 60 12.9 22.5 0.00 0.00 0.00 76 1011.8
20260502113113 27 80 9.7 27.4 0.00 0.00 0.00 76 1011.7
20260502112555 27 86 11.3 27.4 0.00 0.00 0.00 76 1011.7
20260502112055 27 78 12.9 22.5 0.00 0.00 0.00 76 1011.5
20260502111602 27 83 12.9 25.7 0.00 0.00 0.00 77 1011.6
20260502111059 27 59 14.5 25.7 0.00 0.00 0.00 77 1011.5
20260502110559 27 65 14.5 25.7 0.00 0.00 0.00 77 1011.4
20260502110057 27 69 12.9 22.5 0.00 0.00 0.00 76 1011.5
20260502105559 27 46 11.3 24.1 0.00 0.00 0.00 76 1011.4
20260502105055 27 46 16.1 24.1 0.00 0.00 0.00 76 1011.3
20260502104608 27 50 14.5 24.1 0.00 0.00 0.00 76 1011.2
20260502104058 27 80 16.1 24.1 0.00 0.00 0.00 75 1011.2
20260502103556 27 50 16.1 25.7 0.00 0.00 0.00 75 1011.1
20260502103056 27 54 16.1 25.7 0.00 0.00 0.00 75 1011.1
20260502102558 27 83 12.9 25.7 0.00 0.00 0.00 76 1011.1
20260502102057 27 48 12.9 25.7 0.00 0.00 0.00 75 1011.0
20260502101609 27 72 14.5 25.7 0.00 0.00 0.00 75 1011.0
20260502101058 27 61 12.9 25.7 0.00 0.00 0.00 75 1011.0
20260502100559 27 49 16.1 25.7 0.00 0.00 0.00 75 1010.8
20260502091059 27 56 19.3 30.6 0.00 0.00 0.00 74 1010.2
20260502090556 28 54 16.1 29.0 0.00 0.00 0.00 75 1010.3
20260502090107 28 88 17.7 32.2 0.00 0.00 0.00 75 1010.1
20260502071058 29 65 14.5 29.0 0.00 0.00 0.00 68 1009.1
20260502070555 29 71 17.7 33.8 0.00 0.00 0.00 69 1009.0
20260502070122 29 49 22.5 33.8 0.00 0.00 0.00 69 1009.0
20260502065557 29 82 20.9 37.0 0.00 0.00 0.00 68 1009.0
20260502065100 30 99 20.9 37.0 0.00 0.00 0.00 67 1008.9
20260502064557 30 78 19.3 32.2 0.00 0.00 0.00 66 1008.8
20260502064056 30 90 16.1 32.2 0.00 0.00 0.00 65 1008.9
20260502063556 30 72 17.7 35.4 0.00 0.00 0.00 67 1008.9
20260502063123 30 68 22.5 37.0 0.00 0.00 0.00 66 1008.9
20260502062601 30 55 22.5 37.0 0.00 0.00 0.00 68 1009.0
20260502062056 30 74 22.5 37.0 0.00 0.00 0.00 67 1008.9
20260502061559 30 76 22.5 37.0 0.00 0.00 0.00 69 1008.9
20260502061058 30 74 20.9 37.0 0.00 0.00 0.00 68 1008.8
20260502060558 30 57 24.1 37.0 0.00 0.00 0.00 68 1008.8
20260502060058 30 69 20.9 37.0 0.00 0.00 0.00 67 1008.9
20260502055559 30 62 19.3 37.0 0.00 0.00 0.00 68 1008.9
20260502055059 30 82 27.4 38.6 0.00 0.00 0.00 67 1008.9
20260502054609 30 76 17.7 43.5 0.00 0.00 0.00 68 1008.9
20260502054059 30 65 25.7 43.5 0.00 0.00 0.00 68 1008.8
20260502053556 30 58 25.7 43.5 0.00 0.00 0.00 66 1008.8
20260502053059 30 67 19.3 35.4 0.00 0.00 0.00 66 1008.9
20260502052556 30 74 22.5 43.5 0.00 0.00 0.00 67 1008.9
20260502052057 30 82 25.7 43.5 0.00 0.00 0.00 68 1008.9
20260502051557 30 65 20.9 38.6 0.00 0.00 0.00 68 1008.9
20260502051056 30 44 19.3 38.6 0.00 0.00 0.00 66 1008.9
20260502050557 30 128 24.1 35.4 0.00 0.00 0.00 1008.9
20260502050057 30 80 20.9 37.0 0.00 0.00 0.00 66 1009.0
20260502045601 30 62 17.7 37.0 0.00 0.00 0.00 64 1009.0
20260502045056 30 87 22.5 41.8 0.00 0.00 0.00 66 1009.0
20260502044556 30 76 22.5 41.8 0.00 0.00 0.00 64 1008.8
20260502044058 30 76 24.1 38.6 0.00 0.00 0.00 66 1008.9
20260502043556 31 84 17.7 40.2 0.00 0.00 0.00 65 1008.9
20260502043111 31 80 16.1 40.2 0.00 0.00 0.00 65 1009.0
20260502042600 31 84 20.9 40.2 0.00 0.00 0.00 64 1009.0
20260502042058 31 101 17.7 40.2 0.00 0.00 0.00 63 1009.0
20260502041619 31 109 19.3 40.2 0.00 0.00 0.00 64 1009.1
20260502041101 30 76 20.9 38.6 0.00 0.00 0.00 63 1009.1
20260502040623 30 89 16.1 32.2 0.00 0.00 0.00 67 1009.1
20260502040100 30 115 22.5 35.4 0.00 0.00 0.00 67 1009.2
20260502035559 30 67 20.9 43.5 0.00 0.00 0.00 66 1009.2
20260502035056 30 78 22.5 43.5 0.00 0.00 0.00 67 1009.2
20260502034557 30 81 22.5 38.6 0.00 0.00 0.00 66 1009.4
20260502034056 30 77 22.5 38.6 0.00 0.00 0.00 66 1009.4
20260502033555 30 78 19.3 40.2 0.00 0.00 0.00 68 1009.5
20260502033057 30 88 22.5 40.2 0.00 0.00 0.00 68 1009.5
20260502032555 30 86 22.5 43.5 0.00 0.00 0.00 68 1009.5
20260502032058 30 101 24.1 43.5 0.00 0.00 0.00 67 1009.5
20260502031556 30 94 17.7 41.8 0.00 0.00 0.00 68 1009.5
20260502031102 30 67 29.0 41.8 0.00 0.00 0.00 67 1009.5
20260502030557 30 65 25.7 33.8 0.00 0.00 0.00 68 1009.5
20260502030117 30 43 19.3 37.0 0.00 0.00 0.00 68 1009.7
20260502025557 30 75 19.3 40.2 0.00 0.00 0.00 69 1009.7
20260502025057 30 121 22.5 40.2 0.00 0.00 0.00 67 1009.7
20260502024606 30 82 22.5 32.2 0.00 0.00 0.00 68 1009.8
20260502024056 30 71 12.9 33.8 0.00 0.00 0.00 69 1009.9
20260502023559 30 104 19.3 37.0 0.00 0.00 0.00 68 1009.9
20260502023132 30 71 20.9 37.0 0.00 0.00 0.00 69 1010.1
20260502022559 30 80 20.9 33.8 0.00 0.00 0.00 68 1010.1
20260502022056 30 72 17.7 38.6 0.00 0.00 0.00 70 1010.1
20260502021556 30 83 22.5 38.6 0.00 0.00 0.00 68 1010.2
20260502021055 30 90 17.7 32.2 0.00 0.00 0.00 68 1010.3
20260502020559 30 102 19.3 32.2 0.00 0.00 0.00 68 1010.3
20260502020104 30 60 19.3 37.0 0.00 0.00 0.00 69 1010.4
20260502015557 30 78 17.7 37.0 0.00 0.00 0.00 70 1010.5
20260502015057 30 97 22.5 37.0 0.00 0.00 0.00 68 1010.7
20260502014607 30 70 22.5 37.0 0.00 0.00 0.00 69 1010.7
20260502014058 30 68 19.3 35.4 0.00 0.00 0.00 69 1010.7
20260502013559 30 96 19.3 40.2 0.00 0.00 0.00 69 1010.7
20260502013103 30 67 20.9 40.2 0.00 0.00 0.00 68 1010.8
20260502012559 30 98 24.1 37.0 0.00 0.00 0.00 68 1010.8
20260502012059 30 84 24.1 37.0 0.00 0.00 0.00 68 1010.9
20260502011607 30 77 17.7 37.0 0.00 0.00 0.00 68 1010.9
20260502011055 30 81 24.1 35.4 0.00 0.00 0.00 69 1010.9
20260502010558 30 86 24.1 33.8 0.00 0.00 0.00 70 1010.9
20260502010057 30 70 20.9 33.8 0.00 0.00 0.00 69 1011.0
20260502005558 30 94 17.7 37.0 0.00 0.00 0.00 70 1011.1
20260502005101 30 80 24.1 37.0 0.00 0.00 0.00 69 1011.1
20260502004558 30 66 22.5 41.8 0.00 0.00 0.00 69 1011.1
20260502004058 30 67 22.5 41.8 0.00 0.00 0.00 69 1011.1
20260502003556 30 59 19.3 41.8 0.00 0.00 0.00 67 1011.2
20260502003057 30 79 24.1 37.0 0.00 0.00 0.00 67 1011.2
20260502002601 30 80 17.7 33.8 0.00 0.00 0.00 69 1011.1
20260502002059 30 84 22.5 33.8 0.00 0.00 0.00 68 1011.0
20260502001603 30 92 22.5 37.0 0.00 0.00 0.00 68 1011.1
20260502001059 30 93 19.3 43.5 0.00 0.00 0.00 69 1011.1
20260502000558 29 80 24.1 43.5 0.00 0.00 0.00 69 1011.2
20260502000109 30 88 22.5 43.5 0.00 0.00 0.00 68 1011.3
20260501235557 30 60 19.3 32.2 0.00 0.00 0.00 70 1011.3
20260501235102 30 80 19.3 33.8 0.00 0.00 0.00 70 1011.3
20260501234555 30 93 17.7 33.8 0.00 0.00 0.00 70 1011.3
20260501234058 29 82 20.9 32.2 0.00 0.00 0.00 70 1011.3
20260501233558 30 53 19.3 29.0 0.00 0.00 0.00 70 1011.5
20260501233117 30 88 14.5 29.0 0.00 0.00 0.00 69 1011.5
20260501232558 29 71 17.7 30.6 0.00 0.00 0.00 70 1011.6
20260501232058 29 52 17.7 32.2 0.00 0.00 0.00 71 1011.5
20260501231627 29 80 17.7 32.2 0.00 0.00 0.00 70 1011.6
20260501231058 29 96 17.7 37.0 0.00 0.00 0.00 70 1011.6
20260501230600 29 61 19.3 37.0 0.00 0.00 0.00 70 1011.6
20260501230118 29 55 20.9 30.6 0.00 0.00 0.00 71 1011.5
20260501225558 29 69 20.9 30.6 0.00 0.00 0.00 71 1011.5
20260501225058 29 86 12.9 33.8 0.00 0.00 0.00 72 1011.5
20260501224606 29 80 22.5 37.0 0.00 0.00 0.00 72 1011.4
20260501224057 28 85 19.3 37.0 0.00 0.00 0.00 73 1011.4
20260501223557 28 87 16.1 30.6 0.00 0.00 0.00 73 1011.6
20260501223059 28 73 16.1 30.6 0.00 0.00 0.00 74 1011.5
20260501222558 28 81 17.7 32.2 0.00 0.00 0.00 74 1011.5
20260501222058 28 89 19.3 32.2 0.00 0.00 0.00 75 1011.5
20260501221610 28 101 19.3 30.6 0.00 0.00 0.00 74 1011.4
20260501221058 28 76 17.7 25.7 0.00 0.00 0.00 74 1011.4
20260501220558 28 56 12.9 27.4 0.00 0.00 0.00 75 1011.3
20260501220105 28 66 14.5 27.4 0.00 0.00 0.00 75 1011.2
20260501215558 28 82 16.1 27.4 0.00 0.00 0.00 75 1011.2
20260501215058 28 61 11.3 27.4 0.00 0.00 0.00 76 1011.1
20260501214601 28 68 16.1 27.4 0.00 0.00 0.00 76 1011.0
20260501214057 28 76 14.5 27.4 0.00 0.00 0.00 77 1011.0
20260501213557 28 82 14.5 22.5 0.00 0.00 0.00 77 1011.1
20260501213101 28 86 11.3 27.4 0.00 0.00 0.00 78 1011.0
20260501212558 27 54 12.9 27.4 0.00 0.00 0.00 78 1011.0
20260501212058 27 52 11.3 27.4 0.00 0.00 0.00 79 1010.9
20260501211557 27 58 14.5 27.4 0.00 0.00 0.00 80 1010.9
20260501211058 27 81 11.3 22.5 0.00 0.00 0.00 80 1011.0